| time (UTC) | temp F | wind direction | speed MPH | gust MPH | rain 1hr in | rain 24hr in | rain mn in | humidity % | barometer mb |
| 20260902210032 | 77 | 104 | 3.0 | 6.0 | 0.00 | 0.19 | 0.19 | 79 | 1012.7 |
| 20260902205028 | 77 | 126 | 2.0 | 6.0 | 0.00 | 0.19 | 0.19 | 78 | 1012.7 |
| 20260902204045 | 77 | 136 | 3.0 | 6.0 | 0.00 | 0.19 | 0.19 | 77 | 1012.7 |
| 20260902203021 | 78 | 128 | 2.0 | 6.0 | 0.00 | 0.19 | 0.19 | 75 | 1012.6 |
| 20260902202018 | 77 | 137 | 2.0 | 4.0 | 0.00 | 0.19 | 0.19 | 76 | 1012.7 |
| 20260902201055 | 78 | 134 | 3.0 | 8.0 | 0.00 | 0.19 | 0.19 | 74 | 1012.6 |
| 20260902200032 | 78 | 144 | 3.0 | 9.0 | 0.00 | 0.19 | 0.19 | 73 | 1012.6 |
| 20260902195028 | 79 | 142 | 3.0 | 6.0 | 0.00 | 0.19 | 0.19 | 71 | 1012.7 |
| 20260902194048 | 79 | 150 | 2.0 | 7.0 | 0.00 | 0.19 | 0.19 | 72 | 1012.7 |
| 20260902193022 | 78 | 128 | 3.0 | 9.0 | 0.00 | 0.19 | 0.19 | 71 | 1012.8 |
| 20260902192019 | 80 | 126 | 4.0 | 8.0 | 0.00 | 0.19 | 0.19 | 68 | 1012.8 |
| 20260902191016 | 80 | 131 | 2.0 | 6.0 | 0.00 | 0.19 | 0.19 | 66 | 1012.8 |
| 20260902190033 | 82 | 127 | 2.0 | 6.0 | 0.00 | 0.19 | 0.19 | 61 | 1013.0 |
| 20260902185030 | 83 | 143 | 2.0 | 4.0 | 0.00 | 0.19 | 0.19 | 61 | 1013.0 |
| 20260902184026 | 82 | 133 | 2.0 | 4.0 | 0.00 | 0.19 | 0.19 | 63 | 1013.0 |
| 20260902183023 | 81 | 142 | 2.0 | 4.0 | 0.00 | 0.19 | 0.19 | 67 | 1013.0 |
| 20260902182020 | 78 | 143 | 1.0 | 3.0 | 0.00 | 0.19 | 0.19 | 72 | 1013.3 |
| 20260902181016 | 77 | 143 | 1.0 | 3.0 | 0.00 | 0.19 | 0.19 | 73 | 1013.2 |
| 20260902180054 | 77 | 124 | 1.0 | 3.0 | 0.00 | 0.19 | 0.19 | 72 | 1013.5 |
| 20260902175031 | 77 | 158 | 2.0 | 6.0 | 0.00 | 0.19 | 0.19 | 73 | 1013.5 |
| 20260902174026 | 77 | 121 | 1.0 | 2.0 | 0.00 | 0.19 | 0.19 | 74 | 1013.5 |
| 20260902173023 | 79 | 131 | 2.0 | 4.0 | 0.00 | 0.19 | 0.19 | 71 | 1013.7 |
| 20260902172040 | 79 | 152 | 2.0 | 8.0 | 0.00 | 0.19 | 0.19 | 72 | 1013.4 |
| 20260902171018 | 77 | 173 | 2.0 | 7.0 | 0.00 | 0.19 | 0.19 | 76 | 1013.4 |
| 20260902170053 | 77 | 163 | 2.0 | 8.0 | 0.00 | 0.19 | 0.19 | 78 | 1013.6 |
| 20260902165030 | 77 | 183 | 2.0 | 4.0 | 0.03 | 0.19 | 0.19 | 79 | 1013.7 |
| 20260902164047 | 76 | 160 | 1.0 | 4.0 | 0.05 | 0.19 | 0.19 | 82 | 1013.6 |
| 20260902163024 | 76 | 180 | 1.0 | 4.0 | 0.05 | 0.19 | 0.19 | 82 | 1013.8 |
| 20260902162020 | 75 | 144 | 2.0 | 6.0 | 0.05 | 0.19 | 0.19 | 85 | 1013.9 |
| 20260902161017 | 73 | 174 | 1.0 | 2.0 | 0.05 | 0.19 | 0.19 | 86 | 1013.9 |
| 20260902160034 | 74 | 124 | 1.0 | 2.0 | 0.05 | 0.19 | 0.19 | 83 | 1014.4 |
| 20260902155031 | 76 | 99 | 1.0 | 3.0 | 0.02 | 0.16 | 0.16 | 76 | 1014.7 |
| 20260902154028 | 78 | 108 | 2.0 | 6.0 | 0.00 | 0.14 | 0.14 | 75 | 1013.9 |
| 20260902153046 | 76 | 126 | 2.0 | 4.0 | 0.00 | 0.14 | 0.14 | 77 | 1013.8 |
| 20260902152021 | 78 | 131 | 2.0 | 4.0 | 0.00 | 0.14 | 0.14 | 73 | 1013.8 |
| 20260902151038 | 78 | 153 | 1.0 | 4.0 | 0.00 | 0.14 | 0.14 | 75 | 1013.8 |
| 20260902150035 | 76 | 133 | 1.0 | 4.0 | 0.00 | 0.14 | 0.14 | 78 | 1013.9 |
| 20260902145051 | 75 | 138 | 1.0 | 3.0 | 0.00 | 0.14 | 0.14 | 79 | 1014.1 |
| 20260902144027 | 74 | 110 | 1.0 | 3.0 | 0.00 | 0.14 | 0.14 | 80 | 1014.0 |
| 20260902143023 | 73 | 123 | 1.0 | 3.0 | 0.00 | 0.14 | 0.14 | 81 | 1014.1 |
| 20260902142020 | 76 | 147 | 2.0 | 4.0 | 0.00 | 0.14 | 0.14 | 77 | 1014.0 |
| 20260902141017 | 76 | 0 | 1.0 | 3.0 | 0.00 | 0.14 | 0.14 | 79 | 1014.6 |
| 20260902140034 | 72 | 349 | 0.0 | 3.0 | 0.00 | 0.14 | 0.14 | 84 | 1014.5 |
| 20260902135030 | 70 | 339 | 1.0 | 3.0 | 0.00 | 0.14 | 0.14 | 85 | 1014.5 |
| 20260902134026 | 71 | 352 | 2.0 | 7.0 | 0.00 | 0.14 | 0.14 | 83 | 1014.4 |
| 20260902133044 | 71 | 343 | 2.0 | 6.0 | 0.00 | 0.14 | 0.14 | 83 | 1014.2 |
| 20260902132020 | 70 | 344 | 2.0 | 4.0 | 0.00 | 0.14 | 0.14 | 86 | 1014.4 |
| 20260902131018 | 69 | 356 | 2.0 | 6.0 | 0.00 | 0.14 | 0.14 | 88 | 1014.5 |
| 20260902130034 | 68 | 357 | 2.0 | 6.0 | 0.00 | 0.14 | 0.14 | 91 | 1014.5 |
| 20260902125030 | 67 | 350 | 2.0 | 6.0 | 0.00 | 0.14 | 0.14 | 93 | 1014.5 |
| 20260902124027 | 66 | 354 | 2.0 | 7.0 | 0.00 | 0.14 | 0.14 | 93 | 1014.6 |
| 20260902123024 | 66 | 357 | 3.0 | 8.0 | 0.00 | 0.14 | 0.14 | 93 | 1014.7 |
| 20260902122021 | 66 | 353 | 2.0 | 7.0 | 0.00 | 0.14 | 0.14 | 94 | 1014.7 |
| 20260902121017 | 66 | 345 | 2.0 | 6.0 | 0.00 | 0.14 | 0.14 | 93 | 1014.8 |
| 20260902120035 | 66 | 334 | 2.0 | 4.0 | 0.00 | 0.14 | 0.14 | 90 | 1014.8 |
| 20260902115031 | 67 | 4 | 1.0 | 4.0 | 0.00 | 0.14 | 0.14 | 88 | 1014.6 |
| 20260902114027 | 68 | 10 | 2.0 | 6.0 | 0.00 | 0.14 | 0.14 | 89 | 1014.9 |
| 20260902113024 | 69 | 1 | 2.0 | 6.0 | 0.00 | 0.14 | 0.14 | 87 | 1015.0 |
| 20260902112102 | 70 | 354 | 4.0 | 14.0 | 0.00 | 0.14 | 0.14 | 86 | 1015.2 |
| 20260902111018 | 72 | 343 | 6.0 | 15.0 | 0.00 | 0.14 | 0.14 | 87 | 1015.2 |
| 20260902110035 | 72 | 333 | 4.0 | 13.0 | 0.00 | 0.14 | 0.14 | 92 | 1015.4 |
| 20260902105031 | 71 | 317 | 4.0 | 21.0 | 0.00 | 0.14 | 0.14 | 99 | 1015.6 |
| 20260902104028 | 71 | 250 | 0.0 | 2.0 | 0.00 | 0.14 | 0.14 | 99 | 1013.6 |
| 20260902040022 | 80 | 276 | 1.0 | 3.0 | 0.00 | 0.00 | 0.00 | 87 | 1013.3 |
| 20260902035018 | 79 | 254 | 1.0 | 3.0 | 0.00 | 0.00 | 0.00 | 87 | 1013.1 |
| 20260902034035 | 79 | 217 | 1.0 | 3.0 | 0.00 | 0.00 | 0.00 | 84 | 1013.2 |
| 20260902033032 | 81 | 135 | 1.0 | 3.0 | 0.00 | 0.00 | 0.00 | 81 | 1012.9 |
| 20260902032028 | 82 | 203 | 0.0 | 1.0 | 0.00 | 0.00 | 0.00 | 82 | 1012.5 |
| 20260902031025 | 82 | 256 | 1.0 | 4.0 | 0.00 | 0.00 | 0.00 | 82 | 1012.7 |
| 20260902030021 | 82 | 264 | 2.0 | 7.0 | 0.00 | 0.00 | 0.00 | 82 | 1013.1 |
| 20260902025017 | 82 | 272 | 2.0 | 6.0 | 0.00 | 0.00 | 0.00 | 83 | 1013.1 |
| 20260902024034 | 83 | 265 | 2.0 | 6.0 | 0.00 | 0.00 | 0.00 | 83 | 1012.8 |
| 20260902023051 | 83 | 262 | 2.0 | 8.0 | 0.00 | 0.00 | 0.00 | 83 | 1012.9 |
| 20260902022028 | 83 | 265 | 1.0 | 7.0 | 0.00 | 0.00 | 0.00 | 83 | 1012.9 |
| 20260902021024 | 83 | 255 | 1.0 | 6.0 | 0.00 | 0.00 | 0.00 | 82 | 1013.0 |
| 20260902020021 | 83 | 263 | 3.0 | 9.0 | 0.00 | 0.00 | 0.00 | 82 | 1013.0 |
| 20260902015018 | 83 | 267 | 2.0 | 7.0 | 0.00 | 0.00 | 0.00 | 82 | 1012.9 |
| 20260902014035 | 83 | 263 | 2.0 | 7.0 | 0.00 | 0.00 | 0.00 | 82 | 1012.8 |
| 20260902013031 | 83 | 269 | 1.0 | 4.0 | 0.00 | 0.00 | 0.00 | 82 | 1012.6 |
| 20260902012028 | 84 | 244 | 1.0 | 6.0 | 0.00 | 0.00 | 0.00 | 82 | 1012.6 |
| 20260902011024 | 84 | 236 | 2.0 | 6.0 | 0.00 | 0.00 | 0.00 | 81 | 1012.6 |
| 20260902010041 | 84 | 242 | 1.0 | 4.0 | 0.00 | 0.00 | 0.00 | 80 | 1012.3 |
| 20260902005018 | 85 | 258 | 1.0 | 6.0 | 0.00 | 0.00 | 0.00 | 79 | 1012.1 |
| 20260902004035 | 85 | 262 | 1.0 | 6.0 | 0.00 | 0.00 | 0.00 | 78 | 1012.0 |
| 20260902003032 | 85 | 252 | 2.0 | 6.0 | 0.00 | 0.00 | 0.00 | 77 | 1012.1 |
| 20260902002028 | 85 | 219 | 1.0 | 4.0 | 0.00 | 0.00 | 0.00 | 74 | 1012.1 |
| 20260902001025 | 85 | 234 | 1.0 | 4.0 | 0.00 | 0.00 | 0.00 | 72 | 1012.4 |
| 20260902000021 | 86 | 222 | 0.0 | 3.0 | 0.00 | 0.00 | 0.00 | 68 | 1012.3 |
| 20260901235019 | 87 | 229 | 0.0 | 6.0 | 0.00 | 0.00 | 0.00 | 68 | 1012.3 |
| 20260901234035 | 87 | 255 | 1.0 | 3.0 | 0.00 | 0.00 | 0.00 | 68 | 1012.3 |
| 20260901233052 | 88 | 261 | 1.0 | 4.0 | 0.00 | 0.00 | 0.00 | 67 | 1012.1 |
| 20260901232029 | 88 | 260 | 1.0 | 7.0 | 0.00 | 0.00 | 0.00 | 66 | 1012.0 |
| 20260901231026 | 88 | 259 | 3.0 | 7.0 | 0.00 | 0.00 | 0.00 | 65 | 1012.2 |
| 20260901230021 | 87 | 248 | 2.0 | 7.0 | 0.00 | 0.00 | 0.00 | 68 | 1012.3 |
| 20260901225018 | 84 | 237 | 2.0 | 9.0 | 0.00 | 0.00 | 0.00 | 75 | 1012.4 |
| 20260901224035 | 81 | 136 | 2.0 | 3.0 | 0.00 | 0.00 | 0.00 | 77 | 1012.3 |
| 20260901223032 | 84 | 122 | 1.0 | 3.0 | 0.00 | 0.00 | 0.00 | 75 | 1012.3 |
| 20260901222028 | 83 | 128 | 2.0 | 6.0 | 0.00 | 0.00 | 0.00 | 76 | 1012.3 |
| 20260901221025 | 84 | 132 | 3.0 | 8.0 | 0.00 | 0.00 | 0.00 | 74 | 1012.3 |
| 20260901220022 | 83 | 124 | 2.0 | 7.0 | 0.00 | 0.00 | 0.00 | 76 | 1012.4 |
| 20260901215019 | 83 | 124 | 2.0 | 4.0 | 0.00 | 0.00 | 0.00 | 77 | 1012.4 |
| 20260901214035 | 83 | 127 | 2.0 | 7.0 | 0.00 | 0.00 | 0.00 | 79 | 1012.5 |
| 20260901213032 | 82 | 155 | 2.0 | 7.0 | 0.00 | 0.00 | 0.00 | 80 | 1012.4 |
| 20260901212030 | 82 | 144 | 3.0 | 8.0 | 0.00 | 0.00 | 0.00 | 79 | 1012.5 |
| 20260901211026 | 82 | 159 | 3.0 | 8.0 | 0.00 | 0.00 | 0.00 | 79 | 1012.5 |